This demonstration page uses our WeatherBlox Daily Observations layout. Learn more.

Left ArrowRight Arrow

39.29038, -76.61219

Hourly Observations for January 8, 2017

Temp ( °F °C ) Dew Point ( °F °C ) Humidity (%) Winds ( mph kmh ) Pressure ( in mb ) Visibility ( mi km ) Precip ( " mm )
12:54 am 00:54 undefined 20 -6.7 1 -17.2 43 43 undefined N/A 30.33 1027 N/A 0.00 0.00
1:54 am 01:54 undefined 19 -7.2 -1 -18.3 41 41 undefined N/A 30.34 1028 N/A 0.00 0.00
2:54 am 02:54 undefined 18 -7.8 1 -17.2 47 47 undefined N/A 30.38 1029 N/A 0.00 0.00
3:54 am 03:54 undefined 18 -7.8 -1 -18.3 43 43 undefined N/A 30.36 1028 N/A 0.00 0.00
4:54 am 04:54 undefined 17 -8.3 -2 -18.9 43 43 undefined N/A 30.39 1029 N/A 0.00 0.00
5:54 am 05:54 undefined 16 -8.9 -3 -19.4 43 43 undefined N/A 30.40 1030 N/A 0.00 0.00
6:54 am 06:54 undefined 16 -8.9 -2 -18.9 45 45 undefined N/A 30.43 1031 N/A 0.00 0.00
7:54 am 07:54 undefined 16 -8.9 -1 -18.3 47 47 undefined N/A 30.48 1032 N/A 0.00 0.00
8:54 am 08:54 undefined 18 -7.8 -1 -18.3 43 43 undefined N/A 30.50 1033 N/A 0.00 0.00
9:54 am 09:54 undefined 19 -7.2 0 -17.8 43 43 undefined N/A 30.42 1030 N/A 0.00 0.00
10:54 am 10:54 undefined 20 -6.7 -1 -18.3 40 40 undefined N/A 30.54 1034 N/A 0.00 0.00
11:54 am 11:54 undefined 22 -5.6 -1 -18.3 36 36 undefined N/A 30.50 1033 N/A 0.00 0.00
12:54 pm 12:54 undefined 23 -5 -1 -18.3 35 35 undefined N/A 30.49 1032 N/A 0.00 0.00
1:54 pm 13:54 undefined 24 -4.4 -2 -18.9 32 32 undefined N/A 30.42 1030 N/A 0.00 0.00
2:54 pm 14:54 undefined 22 -5.6 -4 -20 31 31 undefined N/A 30.47 1032 N/A 0.00 0.00
3:54 pm 15:54 undefined 22 -5.6 -3 -19.4 33 33 undefined N/A 30.57 1035 N/A 0.00 0.00
4:54 pm 16:54 undefined 22 -5.6 -3 -19.4 33 33 undefined N/A 30.57 1035 N/A 0.00 0.00
5:54 pm 17:54 undefined 21 -6.1 -3 -19.4 34 34 undefined N/A 30.60 1036 N/A 0.00 0.00
6:54 pm 18:54 undefined 21 -6.1 -2 -18.9 36 36 undefined N/A 30.62 1037 N/A 0.00 0.00
7:54 pm 19:54 undefined 20 -6.7 -1 -18.3 40 40 undefined N/A 30.66 1038 N/A 0.00 0.00
8:54 pm 20:54 undefined 20 -6.7 -1 -18.3 40 40 undefined N/A 30.68 1039 N/A 0.00 0.00
9:54 pm 21:54 undefined 19 -7.2 -1 -18.3 41 41 undefined N/A 30.65 1038 N/A 0.00 0.00
10:54 pm 22:54 undefined 19 -7.2 -1 -18.3 41 41 undefined N/A 30.75 1041 N/A 0.00 0.00
11:23 pm 23:23 undefined 18 -7.8 -1 -18.3 43 43 undefined N/A 30.77 1042 N/A 0.00 0.00
11:54 pm 23:54 undefined 18 -7.8 -1 -18.3 43 43 undefined N/A 30.76 1042 N/A 0.00 0.00

Powered by AerisWeather